Weather History for KLBF - March, 2012

Change the Weather History Date:

Saturday, March 3, 2012

  Actual Average Record
Temperature  
Mean Temperature 31 °F 34 °F  
Max Temperature 46 °F 48 °F 76 °F (1983)
Min Temperature 15 °F 20 °F -22 °F (2002)
Degree Days  
Heating Degree Days 34 31  
Month to date heating degree days 97 94  
Since 1 July heating degree days 4812 5122  
Cooling Degree Days 0 0  
Month to date cooling degree days 0 0  
Year to date cooling degree days 0 0  
Moisture  
Dew Point 18 °F    
Average Humidity 58    
Maximum Humidity 84    
Minimum Humidity 31    
Precipitation  
Precipitation T in 0.03 in 1.00 in (1915)
Month to date precipitation T 0.08  
Year to date precipitation 1.35 0.92  
Snow  
Snow T in 0.20 in 8.80 in (1915)
Month to date snowfall T 0.5  
Since 1 July snowfall 15.6 21.4  
Snow Depth 0.00 in    
Sea Level Pressure  
Sea Level Pressure 30.01 in    
Wind  
Wind Speed 10 mph (WNW)    
Max Wind Speed 30 mph    
Max Gust Speed 41 mph    
Visibility 10 miles    
Events      
T = Trace of Precipitation, MM = Missing Value Source: NWS Daily Summary

Daily Weather History Graph

Daily Weather History Graph

Search for Another Location

Airport or City:

Trip Planner

Search our weather history database for the weather conditions in past years. The results will help you decide how hot, cold, wet, or windy it might be!

Date:

Astronomy

Mar. 03, 2012 Rise Set
Actual Time 7:12 AM CST 6:36 PM CST
Civil Twilight 6:45 AM CST 7:04 PM CST
Nautical Twilight 6:13 AM CST 7:36 PM CST
Astronomical Twilight 5:41 AM CST 8:08 PM CST
Moon 1:46 PM CST (3/3) 3:53 AM CST (3/3)
Length of Visible Light 12h 18m
Length of Day
11h 23m
Waxing Gibbous, 75% of the Moon is Illuminated
Mar 3
Waxing Gibbous
Mar 8
Full
Mar 14
Last Quarter
Mar 22
New
Mar 30
First Quarter

Hourly Weather History & Observations

Time (CST) Temp. Windchill Dew Point Humidity Pressure Visibility Wind Dir Wind Speed Gust Speed Precip Events Conditions
12:53 AM 21.0 °F 9.9 °F 14.0 °F 74% 30.04 in 10.0 mi WNW 10.4 mph - N/A   Clear
1:53 AM 19.9 °F 11.1 °F 12.9 °F 74% 30.03 in 10.0 mi West 6.9 mph - N/A   Clear
2:53 AM 21.9 °F 11.0 °F 15.1 °F 75% 30.04 in 10.0 mi WNW 10.4 mph - N/A   Clear
3:53 AM 19.9 °F 11.1 °F 15.1 °F 81% 30.03 in 10.0 mi West 6.9 mph - N/A   Clear
4:53 AM 21.2 °F 13.6 °F 15.8 °F 80% 29.96 in 10.0 mi West 5.8 mph - N/A   Mostly Cloudy
5:53 AM 19.0 °F 11.1 °F 14.0 °F 81% 30.05 in 10.0 mi West 5.8 mph - N/A   Clear
6:53 AM 15.1 °F 9.4 °F 10.9 °F 84% 30.07 in 10.0 mi WNW 3.5 mph - N/A   Clear
7:53 AM 23.0 °F 14.7 °F 17.1 °F 78% 30.08 in 10.0 mi West 6.9 mph - N/A   Mostly Cloudy
8:53 AM 26.1 °F 16.2 °F 16.0 °F 66% 30.08 in 10.0 mi West 10.4 mph - N/A   Mostly Cloudy
9:53 AM 35.1 °F 25.9 °F 19.0 °F 52% 30.07 in 10.0 mi WNW 13.8 mph - N/A   Clear
10:53 AM 39.0 °F 29.3 °F 18.0 °F 43% 30.06 in 10.0 mi NNW 19.6 mph - N/A   Partly Cloudy
11:53 AM 41.0 °F 31.9 °F 16.0 °F 36% 30.05 in 10.0 mi NW 19.6 mph - N/A   Partly Cloudy
12:53 PM 42.1 °F 32.8 °F 16.0 °F 35% 30.02 in 10.0 mi NW 21.9 mph 28.8 mph N/A   Scattered Clouds
1:53 PM 44.1 °F 34.8 °F 16.0 °F 32% 30.01 in 10.0 mi WNW 25.3 mph 31.1 mph N/A   Mostly Cloudy
2:53 PM 45.0 °F 36.9 °F 19.0 °F 36% 29.99 in 10.0 mi WNW 20.7 mph 35.7 mph N/A   Overcast
3:53 PM 42.1 °F 33.6 °F 18.0 °F 38% 30.01 in 10.0 mi NW 18.4 mph - N/A   Scattered Clouds
4:16 PM 39.2 °F 30.2 °F 26.6 °F 61% 29.94 in 2.5 mi WNW 17.3 mph 32.2 mph 0.00 in   Unknown
4:23 PM 41.0 °F 33.1 °F 24.8 °F 53% 29.93 in 9.0 mi NW 15.0 mph - 0.00 in   Mostly Cloudy
4:53 PM 42.1 °F 35.2 °F 21.9 °F 45% 30.00 in 10.0 mi WNW 12.7 mph - 0.00 in   Partly Cloudy
5:53 PM 41.0 °F 35.8 °F 21.0 °F 45% 29.99 in 10.0 mi WNW 8.1 mph - N/A   Partly Cloudy
6:53 PM 30.9 °F 27.5 °F 18.0 °F 59% 30.01 in 10.0 mi WNW 3.5 mph - N/A   Scattered Clouds
7:53 PM 30.0 °F 26.5 °F 21.0 °F 69% 29.98 in 10.0 mi ENE 3.5 mph - N/A   Mostly Cloudy
8:53 PM 32.0 °F - 24.1 °F 73% 29.96 in 10.0 mi Calm Calm - N/A   Overcast
9:53 PM 35.1 °F - 21.9 °F 59% 29.93 in 10.0 mi Calm Calm - N/A   Overcast
10:53 PM 35.1 °F 32.2 °F 21.9 °F 59% 29.91 in 10.0 mi SW 3.5 mph - N/A   Overcast
11:53 PM 28.9 °F - 21.0 °F 72% 29.91 in 10.0 mi Calm Calm - N/A   Overcast